KB7STN Weather Reports


time (UTC)temp
C
wind
direction
speed
KPH
gust
KPH
rain 1hr
cm
rain 24hr
cm
rain mn
cm
humidity
%
barometer
mb
20260902011021 23 170 0.0 0.0 0.00 0.00 0.00 42 1017.5
20260902010521 23 170 0.0 0.0 0.00 0.00 0.00 42 1017.7
20260902010021 24 170 0.0 6.4 0.00 0.00 0.00 42 1017.7
20260902005521 24 190 0.0 4.8 0.00 0.00 0.00 43 1017.7
20260902005021 24 190 1.6 4.8 0.00 0.00 0.00 42 1017.8
20260902004521 24 199 1.6 8.0 0.00 0.00 0.00 42 1018.0
20260902004021 24 167 1.6 8.0 0.00 0.00 0.00 43 1018.1
20260902003521 24 179 3.2 16.1 0.00 0.00 0.00 43 1018.1
20260902003021 24 182 3.2 8.0 0.00 0.00 0.00 42 1018.1
20260902002521 24 173 4.8 8.0 0.00 0.00 0.00 43 1018.2
20260902002021 24 161 4.8 17.7 0.00 0.00 0.00 42 1018.2
20260902001521 24 168 3.2 11.3 0.00 0.00 0.00 42 1018.2
20260902001021 25 192 1.6 8.0 0.00 0.00 0.00 42 1018.3
20260902000521 25 207 1.6 6.4 0.00 0.00 0.00 42 1018.4
20260902000021 25 212 4.8 12.9 0.00 0.00 0.00 42 1018.3
20260901235521 25 182 3.2 16.1 0.00 0.00 0.00 42 1018.5
20260901235021 25 158 3.2 11.3 0.00 0.00 0.00 41 1018.5
20260901234521 25 202 3.2 9.7 0.00 0.00 0.00 40 1018.5
20260901234021 25 180 3.2 11.3 0.00 0.03 0.00 40 1018.5
20260901233521 26 188 3.2 3.2 0.00 0.03 0.00 40 1018.5
20260901233021 26 145 3.2 11.3 0.00 0.03 0.00 38 1018.6
20260901232521 26 161 4.8 9.7 0.00 0.03 0.00 38 1018.6
20260901232021 26 180 3.2 16.1 0.00 0.03 0.00 37 1018.7
20260901231521 26 241 3.2 9.7 0.00 0.03 0.00 32 1018.6
20260901231021 26 195 4.8 12.9 0.00 0.03 0.00 32 1019.0
20260901230521 26 193 4.8 11.3 0.00 0.03 0.00 32 1019.0
20260901230021 26 196 4.8 14.5 0.00 0.03 0.00 32 1019.1
20260901225521 26 230 3.2 8.0 0.00 0.03 0.00 38 1019.2
20260901225021 26 242 3.2 11.3 0.00 0.03 0.00 34 1019.1
20260901224521 26 225 3.2 9.7 0.00 0.03 0.00 35 1019.2
20260901224021 25 232 3.2 9.7 0.00 0.58 0.00 40 1019.4
20260901223521 26 158 4.8 16.1 0.00 0.58 0.00 43 1019.4
20260901223021 26 153 4.8 9.7 0.00 0.58 0.00 43 1019.6
20260901222521 26 146 4.8 9.7 0.00 0.58 0.00 42 1019.6
20260901222021 26 232 4.8 17.7 0.00 0.58 0.00 40 1019.6
20260901221521 26 174 4.8 11.3 0.00 0.58 0.00 39 1019.6
20260901221021 27 209 3.2 12.9 0.00 0.58 0.00 38 1019.8
20260901220521 27 219 3.2 9.7 0.00 0.58 0.00 34 1019.8
20260901220021 26 169 3.2 11.3 0.00 0.58 0.00 35 1019.9
20260901215522 26 225 3.2 9.7 0.00 0.58 0.00 35 1019.9
20260901215022 26 223 3.2 8.0 0.00 0.58 0.00 37 1020.0
20260901214522 26 217 4.8 14.5 0.00 0.58 0.00 38 1020.2
20260901214022 26 283 4.8 14.5 0.00 0.91 0.00 35 1020.1
20260901213522 26 250 4.8 11.3 0.00 0.91 0.00 35 1020.5
20260901213022 26 192 4.8 12.9 0.00 0.91 0.00 37 1020.3
20260901212522 26 201 4.8 14.5 0.00 0.91 0.00 38 1020.7
20260901212022 26 188 3.2 14.5 0.00 0.91 0.00 36 1020.7
20260901211522 26 205 1.6 11.3 0.00 0.91 0.00 37 1020.7
20260901211022 26 243 1.6 11.3 0.00 0.91 0.00 40 1020.9
20260901210522 25 198 3.2 17.7 0.00 0.91 0.00 39 1020.6
20260901210022 25 241 3.2 12.9 0.00 0.91 0.00 40 1021.0
20260901205522 25 202 1.6 14.5 0.00 0.91 0.00 44 1020.7
20260901205022 24 241 1.6 9.7 0.00 0.91 0.00 44 1020.9
20260901204522 25 241 1.6 4.8 0.00 0.91 0.00 43 1021.2
20260901204022 25 241 1.6 4.8 0.00 0.91 0.00 43 1021.1
20260901203522 25 248 3.2 11.3 0.00 0.91 0.00 44 1021.1
20260901203022 25 252 3.2 4.8 0.00 0.91 0.00 43 1021.2
20260901202522 25 274 4.8 12.9 0.00 0.91 0.00 44 1021.1
20260901202022 24 231 4.8 12.9 0.00 0.91 0.00 43 1021.4
20260901201522 24 216 3.2 8.0 0.00 0.91 0.00 45 1021.4
20260901201022 25 174 1.6 4.8 0.00 0.91 0.00 46 1021.4
20260901200522 25 177 3.2 4.8 0.00 0.91 0.00 47 1021.6
20260901200022 25 199 3.2 11.3 0.00 0.91 0.00 46 1021.5
20260901195522 24 163 3.2 11.3 0.00 0.91 0.00 48 1021.7
20260901195022 24 169 3.2 12.9 0.00 0.91 0.00 46 1021.7
20260901194524 24 217 3.2 8.0 0.00 0.91 0.00 47 1021.9
20260901194022 24 232 4.8 14.5 0.00 0.91 0.00 48 1021.9
20260901193522 24 152 4.8 12.9 0.00 0.91 0.00 47 1022.0
20260901193022 24 155 3.2 11.3 0.00 0.91 0.00 47 1022.0
20260901192522 24 154 3.2 11.3 0.00 0.91 0.00 50 1022.1
20260901192022 23 206 3.2 8.0 0.00 0.91 0.00 50 1022.4
20260901191522 23 198 3.2 8.0 0.00 0.91 0.00 51 1022.4
20260901191022 23 181 3.2 11.3 0.00 0.91 0.00 51 1022.4
20260901190522 22 178 4.8 9.7 0.00 0.91 0.00 51 1022.3
20260901190022 22 186 4.8 16.1 0.00 0.91 0.00 50 1022.5
20260901185522 22 161 1.6 12.9 0.00 0.91 0.00 51 1022.4
20260901185022 22 193 1.6 6.4 0.00 0.91 0.00 52 1022.5
20260901184522 22 194 4.8 9.7 0.00 0.91 0.00 52 1022.6
20260901184022 22 163 3.2 14.5 0.00 0.91 0.00 51 1022.6
20260901183522 22 206 3.2 8.0 0.00 0.91 0.00 52 1022.8
20260901183022 22 207 3.2 8.0 0.00 0.91 0.00 53 1022.8
20260901182522 21 205 3.2 6.4 0.00 0.91 0.00 53 1022.7
20260901182022 22 211 4.8 11.3 0.00 0.91 0.00 52 1022.9
20260901181522 22 220 4.8 11.3 0.00 0.91 0.00 52 1022.9
20260901181022 22 225 3.2 11.3 0.00 0.91 0.00 52 1023.0
20260901180522 22 202 3.2 8.0 0.00 0.91 0.00 53 1022.9
20260901180022 21 202 3.2 8.0 0.00 0.91 0.00 52 1022.9
20260901175522 21 201 3.2 6.4 0.00 0.91 0.00 52 1022.9
20260901175022 22 200 4.8 8.0 0.00 0.91 0.00 51 1023.1
20260901174522 22 204 4.8 11.3 0.00 0.91 0.00 51 1023.0
20260901174022 22 193 3.2 6.4 0.00 0.91 0.00 51 1022.9
20260901173522 22 203 3.2 8.0 0.00 0.91 0.00 53 1023.0
20260901173022 22 201 4.8 8.0 0.00 0.91 0.00 52 1022.9
20260901172522 22 201 3.2 8.0 0.00 0.91 0.00 52 1022.8
20260901172022 21 202 3.2 8.0 0.00 0.91 0.00 52 1022.8
20260901171522 22 194 3.2 9.7 0.00 0.91 0.00 51 1022.9
20260901171022 21 222 4.8 11.3 0.00 0.91 0.00 52 1022.9
20260901170522 21 250 3.2 9.7 0.00 0.91 0.00 53 1022.9
20260901170022 21 181 3.2 8.0 0.00 0.91 0.00 51 1022.8
20260901165522 21 188 3.2 9.7 0.00 0.91 0.00 53 1022.9
20260901165022 21 180 4.8 9.7 0.00 0.91 0.00 52 1022.9
20260901164522 21 184 4.8 8.0 0.00 0.91 0.00 53 1022.8
20260901164022 21 207 4.8 9.7 0.00 0.91 0.00 54 1022.7
20260901163522 21 172 4.8 9.7 0.00 0.91 0.00 54 1022.7
20260901163022 20 196 4.8 11.3 0.00 0.91 0.00 54 1022.6
20260901162522 20 211 6.4 11.3 0.00 0.91 0.00 54 1022.7
20260901162022 20 218 4.8 11.3 0.00 0.91 0.00 53 1022.6
20260901161522 20 238 4.8 12.9 0.00 0.91 0.00 54 1022.5
20260901161022 20 213 4.8 9.7 0.00 0.91 0.00 52 1022.5
20260901160522 20 205 6.4 11.3 0.00 0.91 0.00 53 1022.4
20260901160022 20 179 6.4 12.9 0.00 0.91 0.00 53 1022.5
20260901155522 20 209 6.4 9.7 0.00 0.91 0.00 53 1022.3
20260901155022 20 214 4.8 12.9 0.00 0.91 0.00 53 1022.4
20260901154522 20 202 4.8 11.3 0.00 0.91 0.00 54 1022.3
20260901154022 20 190 3.2 6.4 0.00 0.91 0.00 53 1022.4
20260901153522 20 185 3.2 8.0 0.00 0.91 0.00 54 1022.5
20260901153022 19 188 3.2 8.0 0.00 0.91 0.00 55 1022.6
20260901152522 19 203 4.8 6.4 0.00 0.91 0.00 57 1022.7
20260901152022 18 215 4.8 12.9 0.00 0.91 0.00 57 1022.8
20260901151522 18 211 3.2 9.7 0.00 0.91 0.00 58 1022.8
20260901151022 18 221 3.2 6.4 0.00 0.91 0.00 61 1022.9
20260901150522 17 217 3.2 8.0 0.00 0.91 0.00 61 1022.8
20260901150022 17 220 3.2 9.7 0.00 0.91 0.00 61 1022.9
20260901145522 17 203 3.2 8.0 0.00 0.91 0.00 63 1022.8
20260901145022 17 202 3.2 6.4 0.00 0.91 0.00 62 1022.8
20260901144524 17 195 3.2 8.0 0.00 0.91 0.00 62 1022.8
20260901144022 17 179 3.2 9.7 0.00 0.91 0.00 60 1022.7
20260901143522 17 194 3.2 9.7 0.00 0.91 0.00 59 1022.6
20260901143022 17 221 3.2 11.3 0.00 0.91 0.00 59 1022.6
20260901142522 17 217 4.8 11.3 0.00 0.91 0.00 60 1022.5
20260901142022 17 180 4.8 12.9 0.00 0.91 0.00 61 1022.5
20260901141522 17 196 4.8 9.7 0.00 0.91 0.00 61 1022.6
20260901141022 17 203 4.8 14.5 0.00 0.91 0.00 60 1022.6
20260901140522 16 223 4.8 11.3 0.00 0.91 0.00 62 1022.5
20260901140022 16 202 4.8 11.3 0.00 0.91 0.00 63 1022.4
20260901135524 16 209 3.2 9.7 0.00 0.91 0.00 64 1022.5
20260901135023 16 237 3.2 9.7 0.00 0.91 0.00 65 1022.4
20260901134522 16 200 3.2 8.0 0.00 0.91 0.00 65 1022.3
20260901134022 15 198 4.8 9.7 0.00 0.91 0.00 65 1022.3
20260901133522 15 198 4.8 11.3 0.00 0.91 0.00 65 1022.4
20260901133022 15 233 3.2 11.3 0.00 0.91 0.00 66 1022.5
20260901132522 15 218 3.2 8.0 0.00 0.91 0.00 66 1022.5
20260901132022 15 208 4.8 19.3 0.00 0.91 0.00 65 1022.5
20260901131522 15 169 4.8 19.3 0.00 0.91 0.00 66 1022.4
20260901131022 15 178 3.2 8.0 0.00 0.91 0.00 66 1022.3
20260901130522 15 179 3.2 11.3 0.00 0.91 0.00 66 1022.3
20260901130022 15 188 3.2 12.9 0.00 0.91 0.00 66 1022.3
20260901125522 15 205 3.2 8.0 0.00 0.91 0.00 66 1022.2
20260901125023 15 203 1.6 6.4 0.00 0.91 0.00 66 1022.1
20260901124523 15 194 3.2 9.7 0.00 0.91 0.00 66 1022.1
20260901124023 15 182 3.2 9.7 0.00 0.91 0.00 67 1022.2
20260901123522 15 215 3.2 6.4 0.00 0.91 0.00 66 1022.2
20260901123022 15 217 3.2 6.4 0.00 0.91 0.00 66 1022.1
20260901122523 15 227 3.2 6.4 0.00 0.91 0.00 66 1022.1
20260901122023 15 232 3.2 6.4 0.00 0.91 0.00 66 1022.1
20260901121523 15 198 3.2 8.0 0.00 0.91 0.00 67 1022.2
20260901121023 15 204 4.8 8.0 0.00 0.91 0.00 68 1022.2
20260901120523 15 201 4.8 8.0 0.00 0.91 0.00 68 1022.3
20260901120023 15 221 4.8 11.3 0.00 0.91 0.00 68 1022.4
20260901115523 15 202 4.8 8.0 0.00 0.91 0.00 68 1022.3
20260901115023 15 205 3.2 9.7 0.00 0.91 0.00 69 1022.4
20260901114523 15 209 3.2 8.0 0.00 0.91 0.00 69 1022.2
20260901114023 15 182 3.2 8.0 0.00 0.91 0.00 69 1022.2
20260901113523 15 182 3.2 6.4 0.00 0.91 0.00 69 1022.1
20260901113023 15 178 3.2 9.7 0.00 0.91 0.00 69 1022.1
20260901112523 15 184 3.2 8.0 0.00 0.91 0.00 68 1022.0
20260901112023 15 189 3.2 6.4 0.00 0.91 0.00 68 1022.0
20260901111523 15 186 3.2 8.0 0.00 0.91 0.00 68 1022.0
20260901111023 15 189 3.2 8.0 0.00 0.91 0.00 68 1022.0
20260901110523 15 189 3.2 6.4 0.00 0.91 0.00 68 1022.2
20260901110023 15 184 3.2 6.4 0.00 0.91 0.00 68 1022.2
20260901105523 15 192 3.2 6.4 0.00 0.91 0.00 68 1022.2
20260901105023 15 207 3.2 9.7 0.00 0.91 0.00 68 1022.2
20260901104523 15 189 4.8 8.0 0.00 0.91 0.00 69 1022.2
20260901104023 15 207 4.8 9.7 0.00 0.91 0.00 69 1022.2
20260901103523 15 183 4.8 11.3 0.00 0.91 0.00 70 1022.2
20260901103023 15 171 4.8 8.0 0.00 0.91 0.00 70 1022.2
20260901102523 15 158 4.8 12.9 0.00 0.91 0.00 71 1022.3
20260901102023 15 160 4.8 14.5 0.00 0.91 0.00 71 1022.3
20260901101523 15 207 3.2 11.3 0.00 0.91 0.00 71 1022.4
20260901101023 15 211 3.2 9.7 0.00 0.91 0.00 72 1022.4
20260901100523 15 215 4.8 12.9 0.00 0.91 0.00 72 1022.4
20260901100023 15 217 3.2 8.0 0.00 0.91 0.00 72 1022.4
20260901095523 15 218 1.6 6.4 0.00 0.91 0.00 72 1022.5
20260901095023 15 218 3.2 9.7 0.00 0.91 0.00 72 1022.5
20260901094523 15 216 3.2 9.7 0.00 0.91 0.00 71 1022.6
20260901094023 15 215 1.6 6.4 0.00 0.91 0.00 71 1022.5
20260901093523 15 215 1.6 4.8 0.00 0.91 0.00 70 1022.6
20260901093023 15 215 3.2 6.4 0.00 0.91 0.00 70 1022.3
20260901092523 15 215 3.2 8.0 0.00 0.91 0.00 70 1022.3
20260901092027 15 215 3.2 6.4 0.00 0.91 0.00 70 1022.2
20260901091523 15 219 3.2 8.0 0.00 0.91 0.00 70 1022.3
20260901091023 15 219 3.2 9.7 0.00 0.91 0.00 71 1022.3
20260901090523 15 219 3.2 8.0 0.00 0.91 0.00 71 1022.3
20260901090023 15 219 1.6 8.0 0.00 0.91 0.00 72 1022.3
20260901085523 15 220 1.6 6.4 0.00 0.91 0.00 72 1022.4
20260901085023 15 220 1.6 4.8 0.00 0.91 0.00 72 1022.4
20260901084523 15 219 3.2 6.4 0.00 0.91 0.00 72 1022.4
20260901084023 15 219 3.2 8.0 0.00 0.91 0.00 73 1022.4
20260901083523 15 220 3.2 11.3 0.00 0.91 0.00 73 1022.5
20260901083023 14 224 1.6 9.7 0.00 0.91 0.00 74 1022.5
20260901082523 14 226 1.6 3.2 0.00 0.91 0.00 74 1022.6
20260901082023 15 226 3.2 6.4 0.00 0.91 0.00 73 1022.7
20260901081523 15 226 3.2 8.0 0.00 0.91 0.00 73 1022.6
20260901081023 15 225 3.2 8.0 0.00 0.91 0.00 73 1022.6
20260901080523 15 225 3.2 8.0 0.00 0.91 0.00 73 1022.7
20260901080023 15 225 3.2 6.4 0.00 0.91 0.00 72 1022.8
20260901075523 15 225 3.2 6.4 0.00 0.91 0.00 71 1022.8
20260901075023 15 225 3.2 11.3 0.00 0.91 0.00 71 1022.7
20260901074523 15 225 3.2 9.7 0.00 0.91 0.00 70 1022.7
20260901074023 15 225 3.2 9.7 0.00 0.91 0.00 70 1022.7
20260901073523 15 225 3.2 8.0 0.00 0.91 0.00 69 1022.7
20260901073023 15 225 3.2 8.0 0.00 0.91 0.00 69 1022.8
20260901072523 16 225 3.2 6.4 0.00 0.91 0.00 68 1022.7
20260901072023 16 225 3.2 8.0 0.00 0.91 0.00 68 1022.6
20260901071523 16 225 3.2 8.0 0.00 0.91 0.00 69 1022.6
20260901071023 16 225 3.2 6.4 0.00 0.91 0.00 69 1022.7
20260901070523 16 225 3.2 8.0 0.00 0.91 0.00 69 1022.7
20260901070023 15 225 3.2 16.1 0.00 0.91 0.00 69 1022.6
20260901065523 15 223 3.2 11.3 0.00 0.91 0.00 69 1022.6
20260901065023 15 212 3.2 8.0 0.00 0.91 0.00 70 1022.6
20260901064523 15 219 1.6 6.4 0.00 0.91 0.00 70 1022.5
20260901064023 15 219 3.2 4.8 0.00 0.91 0.00 70 1022.7
20260901063523 16 219 3.2 8.0 0.00 0.91 0.00 70 1022.7
20260901063023 16 221 3.2 8.0 0.00 0.91 0.00 70 1022.8
20260901062523 15 221 3.2 8.0 0.00 0.91 0.00 69 1022.7
20260901062023 15 219 3.2 12.9 0.00 0.91 0.00 71 1022.6
20260901061523 15 232 3.2 9.7 0.00 0.91 0.00 71 1022.6
20260901061023 15 233 3.2 11.3 0.00 0.91 0.00 71 1022.7
20260901060523 15 230 1.6 6.4 0.00 0.91 0.00 71 1022.8
20260901060023 15 230 1.6 8.0 0.00 0.91 0.00 71 1022.8
20260901055523 15 229 1.6 11.3 0.00 0.91 0.91 71 1022.7
20260901055023 15 232 0.0 4.8 0.00 0.91 0.91 71 1022.6
20260901054523 15 232 0.0 3.2 0.00 0.91 0.91 71 1022.7
20260901054023 15 232 1.6 3.2 0.00 0.91 0.91 72 1022.7
20260901053523 15 232 3.2 6.4 0.00 0.91 0.91 72 1022.6
20260901053023 15 232 1.6 6.4 0.00 0.91 0.91 73 1022.6
20260901052523 15 232 1.6 3.2 0.00 0.91 0.91 74 1022.7
20260901052023 15 232 0.0 3.2 0.00 0.91 0.91 75 1022.8
20260901051523 15 232 1.6 3.2 0.00 0.91 0.91 75 1023.2
20260901051023 15 232 1.6 6.4 0.00 0.91 0.91 76 1023.1
20260901050523 15 232 0.0 1.6 0.00 0.91 0.91 77 1023.2
20260901050023 15 232 0.0 1.6 0.00 0.91 0.91 76 1023.2
20260901045523 15 232 0.0 3.2 0.00 0.91 0.91 76 1023.2
20260901045023 15 232 0.0 3.2 0.00 0.91 0.91 76 1023.3
20260901044523 15 232 0.0 6.4 0.00 0.91 0.91 75 1023.4
20260901044023 15 232 0.0 6.4 0.00 0.91 0.91 75 1023.4
20260901043523 15 232 1.6 3.2 0.00 0.91 0.91 75 1023.4
20260901043023 15 232 1.6 9.7 0.00 0.91 0.91 74 1023.3
20260901042523 15 232 1.6 9.7 0.00 0.91 0.91 74 1023.4
20260901042023 15 232 1.6 8.0 0.00 0.91 0.91 74 1023.4
20260901041523 15 231 1.6 6.4 0.00 0.91 0.91 73 1023.5
20260901041023 15 231 1.6 6.4 0.00 0.91 0.91 72 1023.5
20260901040523 15 231 1.6 3.2 0.00 0.91 0.91 72 1023.5
20260901040023 15 231 1.6 8.0 0.00 0.91 0.91 72 1023.4
20260901035523 15 231 1.6 9.7 0.00 0.91 0.91 72 1023.3
20260901035023 15 230 1.6 1.6 0.00 0.91 0.91 72 1023.3
20260901034523 15 230 3.2 6.4 0.00 0.91 0.91 72 1023.2
20260901034023 15 230 3.2 6.4 0.00 0.91 0.91 72 1023.2
20260901033523 15 232 3.2 8.0 0.00 0.91 0.91 71 1023.1
20260901033023 15 238 4.8 9.7 0.00 0.91 0.91 71 1023.0
20260901032523 15 232 3.2 9.7 0.00 0.91 0.91 72 1022.9
20260901032023 15 234 1.6 8.0 0.00 0.91 0.91 73 1022.9
20260901031523 15 234 1.6 3.2 0.00 0.91 0.91 78 1022.9
20260901031023 15 234 1.6 8.0 0.00 0.91 0.91 79 1022.9
20260901030523 15 234 1.6 3.2 0.00 0.91 0.91 78 1023.0
20260901030023 15 234 1.6 4.8 0.00 0.91 0.91 77 1023.0
20260901025523 15 234 1.6 8.0 0.00 0.91 0.91 78 1022.9
20260901025023 15 234 1.6 4.8 0.00 0.91 0.91 78 1022.9
20260901024523 15 234 1.6 4.8 0.00 0.91 0.91 77 1022.8
20260901024023 15 234 1.6 6.4 0.00 0.91 0.91 77 1022.8
20260901023523 15 234 1.6 8.0 0.00 0.91 0.91 76 1022.6
20260901023023 15 234 0.0 0.0 0.00 0.91 0.91 75 1022.7
20260901022523 15 234 0.0 4.8 0.00 0.91 0.91 74 1022.7
20260901022023 15 234 0.0 3.2 0.00 0.91 0.91 74 1022.7
20260901021523 16 234 1.6 0.0 0.00 0.91 0.91 73 1022.7
20260901021023 16 234 1.6 6.4 0.00 0.91 0.91 72 1022.8
20260901020523 16 234 1.6 4.8 0.00 0.91 0.91 72 1022.9
20260901020023 16 234 1.6 6.4 0.00 0.91 0.91 71 1023.0
20260901015523 16 234 1.6 4.8 0.00 0.91 0.91 70 1023.0
20260901015023 16 234 1.6 1.6 0.00 0.91 0.91 69 1023.0
20260901014523 16 234 1.6 9.7 0.00 0.91 0.91 69 1023.0
20260901014023 16 235 1.6 4.8 0.00 0.91 0.91 69 1023.1
20260901013523 16 235 1.6 8.0 0.00 0.91 0.91 70 1023.2
20260901013024 16 236 3.2 8.0 0.00 0.91 0.91 70 1023.4
20260901012524 16 233 3.2 8.0 0.00 0.91 0.91 69 1023.5
20260901012024 16 225 1.6 8.0 0.00 0.91 0.91 69 1023.3
20260901011524 16 236 1.6 4.8 0.00 0.91 0.91 69 1023.3